CW8507 Weather Reports


Display with metric or nautical units.
time (UTC)temp
F
wind
direction
speed
MPH
gust
MPH
rain 1hr
in
rain 24hr
in
rain mn
in
humidity
%
barometer
mb
20260504184446 74 42 3.0 6.0 0.00 0.00 0.00 33 1009.7
20260504182944 73 50 4.0 10.0 0.00 0.00 0.00 32 1009.6
20260504181446 72 146 3.0 10.0 0.00 0.00 0.00 36 1009.6
20260504175948 71 58 3.0 11.0 0.00 0.00 0.00 35 1009.7
20260504174448 71 351 2.0 7.0 0.00 0.00 0.00 36 1009.6
20260504172945 70 49 2.0 7.0 0.00 0.00 0.00 37 1009.7
20260504171446 69 47 3.0 9.0 0.00 0.00 0.00 42 1009.7
20260504081447 50 160 0.0 0.0 0.00 0.00 0.00 76 1008.7
20260504045949 57 141 0.0 0.0 0.00 0.00 0.00 64 1009.0
20260504044449 58 141 0.0 0.0 0.00 0.00 0.00 62 1009.1
20260504042949 58 141 0.0 0.0 0.00 0.00 0.00 62 1009.1
20260504041449 60 176 0.0 0.0 0.00 0.00 0.00 60 1009.0
20260504035949 61 176 0.0 0.0 0.00 0.00 0.00 57 1009.1
20260504034447 63 176 0.0 0.0 0.00 0.00 0.00 54 1009.0
20260504032947 65 176 0.0 0.0 0.00 0.00 0.00 52 1008.8
20260504031446 67 177 0.0 0.0 0.00 0.00 0.00 46 1008.8
20260504025947 70 176 0.0 1.0 0.00 0.00 0.00 40 1008.8
20260504024451 73 323 0.0 0.0 0.00 0.00 0.00 36 1008.8
20260504022948 79 324 0.0 0.0 0.00 0.00 0.00 31 1008.8
20260504021449 80 324 0.0 0.0 0.00 0.00 0.00 27 1008.9
20260504015947 81 321 2.0 3.0 0.00 0.00 0.00 22 1009.0
20260504014448 80 309 0.0 2.0 0.00 0.00 0.00 23 1009.2
20260504012947 79 1 1.0 3.0 0.00 0.00 0.00 24 1009.3
20260504011448 81 252 0.0 4.0 0.00 0.00 0.00 23 1009.4
20260504005948 80 308 1.0 5.0 0.00 0.00 0.00 23 1009.5
20260504004446 81 281 3.0 6.0 0.00 0.00 0.00 21 1009.6
20260504002947 81 226 1.0 4.0 0.00 0.00 0.00 22 1009.7
20260504001449 82 345 1.0 4.0 0.00 0.00 0.00 21 1009.9
20260503235951 80 316 0.0 7.0 0.00 0.00 0.00 22 1010.1
20260503234451 80 244 2.0 9.0 0.00 0.00 0.00 23 1010.2
20260503232947 81 203 1.0 6.0 0.00 0.00 0.00 21 1010.3
20260503231449 81 251 2.0 5.0 0.00 0.00 0.00 21 1010.4
20260503225946 81 253 1.0 3.0 0.00 0.00 0.00 21 1010.7
20260503224451 79 77 1.0 5.0 0.00 0.00 0.00 22 1010.9
20260503222950 79 248 1.0 7.0 0.00 0.00 0.00 22 1011.1
20260503221449 78 68 1.0 6.0 0.00 0.00 0.00 22 1011.4
20260503215950 78 51 1.0 6.0 0.00 0.00 0.00 23 1011.7
20260503214448 78 356 4.0 9.0 0.00 0.00 0.00 20 1011.9
20260503212950 79 172 1.0 4.0 0.00 0.00 0.00 22 1012.1
20260503211451 78 300 2.0 5.0 0.00 0.00 0.00 24 1012.2
20260503205948 78 342 3.0 6.0 0.00 0.00 0.00 23 1012.5
20260503204450 77 324 3.0 8.0 0.00 0.00 0.00 23 1012.7
20260503202953 78 314 2.0 4.0 0.00 0.00 0.00 25 1012.9
20260503201450 77 55 1.0 5.0 0.00 0.00 0.00 26 1013.2
20260503195951 76 92 1.0 5.0 0.00 0.00 0.00 25 1013.3
20260503194447 75 314 1.0 7.0 0.00 0.00 0.00 24 1013.6
20260503192950 75 274 3.0 9.0 0.00 0.00 0.00 23 1013.8
20260503191451 75 344 3.0 7.0 0.00 0.00 0.00 23 1013.9
20260503185951 74 333 2.0 7.0 0.00 0.00 0.00 27 1013.9